This is the latest recevied weather packets stored in our database for station/object KE5VT. If no packets are shown the sender has not sent any weather packets the latest 1 day(s).
| Time | Temp. | Humidity | Pressure | Rain* | Wind** | Luminosity | Snow |
|---|---|---|---|---|---|---|---|
| 1778077893 | 20° C | 77% | 1010.9 hPa | 0 mm | 0 m/s | 157 W/m² | - |
| 1778077591 | 20° C | 78% | 1010.7 hPa | 0 mm | 0 m/s | 145 W/m² | - |
| 1778077289 | 20° C | 77% | 1010.8 hPa | 0 mm | 2.24 m/s, 265° | 144 W/m² | - |
| 1778076986 | 20° C | 77% | 1011 hPa | 0 mm | 0.45 m/s, 228° | 147 W/m² | - |
| 1778076684 | 20° C | 78% | 1011 hPa | 0 mm | 1.79 m/s, 299° | 118 W/m² | - |
| 1778076382 | 19.44° C | 78% | 1011.1 hPa | 0 mm | 0 m/s | 121 W/m² | - |
| 1778076078 | 20° C | 77% | 1010.9 hPa | 0 mm | 1.34 m/s, 179° | 122 W/m² | - |
| 1778075775 | 20° C | 78% | 1011 hPa | 0 mm | 0.89 m/s, 340° | 143 W/m² | - |
| 1778075471 | 19.44° C | 79% | 1010.8 hPa | 0 mm | 0.89 m/s, 268° | 129 W/m² | - |
| 1778075168 | 18.89° C | 79% | 1010.7 hPa | 0 mm | 0.89 m/s, 233° | 96 W/m² | - |
| 1778074864 | 18.89° C | 79% | 1010.6 hPa | 0 mm | 1.79 m/s, 308° | 106 W/m² | - |
| 1778074561 | 18.89° C | 80% | 1010.7 hPa | 0 mm | 0.89 m/s, 296° | 120 W/m² | - |
| 1778074258 | 18.33° C | 81% | 1011 hPa | 0 mm | 0 m/s | 104 W/m² | - |
| 1778073956 | 18.33° C | 82% | 1011 hPa | 0 mm | 0.45 m/s, 281° | 102 W/m² | - |
| 1778073653 | 18.33° C | 81% | 1010.9 hPa | 0 mm | 0.89 m/s, 273° | 115 W/m² | - |
| 1778073350 | 18.33° C | 81% | 1010.8 hPa | 0 mm | 0 m/s | 99 W/m² | - |
| 1778073046 | 17.78° C | 81% | 1010.8 hPa | 0 mm | 0 m/s | 92 W/m² | - |
| 1778072743 | 17.78° C | 82% | 1010.7 hPa | 0 mm | 0 m/s | 87 W/m² | - |
| 1778072441 | 17.78° C | 82% | 1010.9 hPa | 0 mm | 0.89 m/s, 139° | 81 W/m² | - |
| 1778072139 | 17.78° C | 82% | 1010.9 hPa | 0 mm | 0 m/s | 75 W/m² | - |
| 1778071836 | 17.78° C | 82% | 1011.1 hPa | 0 mm | 0 m/s | 88 W/m² | - |
| 1778071534 | 17.78° C | 82% | 1011.1 hPa | 0 mm | 0 m/s | 99 W/m² | - |
| 1778071232 | 17.22° C | 83% | 1011.1 hPa | 0 mm | 0 m/s | 89 W/m² | - |
| 1778070929 | 17.22° C | 83% | 1011.1 hPa | 0 mm | 0 m/s | 67 W/m² | - |
| 1778070627 | 16.67° C | 84% | 1011.2 hPa | 0 mm | 0 m/s | 51 W/m² | - |
* Rain latest hour (hover to see other rain measurements)
** Current wind speed in m/s (hover to see current wind gust speed)